Flag for Spain Weather past 2 weeks in Sevilla, Spain

Now
68 °F

Scattered clouds.


Feels Like: 68 °F
Forecast: 62 / 78 °F
Wind: 6 mph from Northwest

Location: Sevilla / San Pablo

Current Time: Sep 22, 2014 at 12:25:52 PM

Latest Report: Sep 22, 2014 at 11:30 AM


Visibility: 4 mi

Pressure: 30.04 "Hg

Humidity: 88%

Dew point: 64 °F

Location of SevillaLocation

Historic Weather in Sevilla — Graph

°F

Sevilla temperature yesterday

Maximum temperature yesterday: 77 °F (at 2:00 PM)
Minimum temperature yesterday: 64 °F (at 6:30 AM)
Average temperature yesterday: 70 °F

Past Weeks' High & Low Weather Summary

 TemperatureHumidityPressure
High90 °F (Sep 13, 5:30 PM)100% (Sep 9, 8:30 AM)30.07 "Hg (Sep 9, 8:30 AM)
Low64 °F (Sep 10, 8:30 AM)27% (Sep 9, 5:30 PM)29.74 "Hg (Sep 16, 1:00 PM)
Average74 °F71%29.94 "Hg
* Reported Sep 7 11:00 AM — Sep 22 11:30 AM, Sevilla, Weather by CustomWeather, © 2014

Note: Actual official high and low records may vary slightly from our data, if they occured in-between our weather recording intervals... More about our weather records

Advertising

Sevilla weather history for previous 24 hours

 ConditionsComfort  
Time TempWeatherWind HumidityBarometerVisibility
11:30 AM
Sep 22
68 °FScattered clouds.6 mph88%30.04 "Hg4 mi
11:00 AM68 °FScattered clouds.3 mph94%30.01 "Hg5 mi
10:30 AM68 °FScattered clouds.3 mph88%30.01 "Hg4 mi
10:00 AM68 °FScattered clouds.1 mph94%30.01 "Hg4 mi
9:30 AM66 °FScattered clouds.No wind100%29.98 "Hg4 mi
9:00 AM66 °FPassing clouds.3 mph94%29.98 "Hg5 mi
8:30 AM66 °FPassing clouds.No wind94%29.98 "Hg5 mi
8:00 AM66 °FPassing clouds.1 mph94%29.98 "Hg5 mi
7:30 AM66 °FLow clouds.No wind94%29.98 "Hg5 mi
7:00 AM66 °FPassing clouds.No wind94%29.95 "Hg5 mi
6:30 AM66 °FPassing clouds.No wind94%29.95 "Hg5 mi
6:00 AM66 °FPassing clouds.No wind100%29.95 "Hg5 mi
5:30 AM66 °FPassing clouds.No wind94%29.98 "Hg5 mi
5:00 AM64 °FPassing clouds.No wind100%29.98 "Hg5 mi
4:30 AM66 °FPassing clouds.No wind94%29.98 "Hg5 mi
4:00 AM66 °FPassing clouds.No wind94%29.98 "Hg5 mi
3:30 AM64 °FPassing clouds.No wind100%30.01 "Hg4 mi
1:00 AM66 °FClear.No wind94%29.98 "Hg10 mi
12:30 AM68 °FClear.No wind88%30.01 "Hg10 mi
12:00 AM68 °FPassing clouds.No wind88%30.01 "HgN/A
11:30 PM
Sep 21
68 °FPassing clouds.1 mph88%30.01 "HgN/A
11:00 PM68 °FClear.No wind88%30.01 "Hg10 mi
10:30 PM70 °FPassing clouds.3 mph83%30.01 "HgN/A
10:00 PM70 °FClear.1 mph83%30.01 "Hg10 mi
9:30 PM70 °FClear.2 mph83%30.01 "Hg10 mi
9:00 PM70 °FPassing clouds.2 mph83%29.98 "HgN/A
8:30 PM70 °FPassing clouds.1 mph83%29.98 "HgN/A
8:00 PM72 °FPassing clouds.6 mph83%29.98 "HgN/A
7:30 PM72 °FPassing clouds.3 mph78%29.98 "HgN/A
7:00 PM72 °FPassing clouds.9 mph83%29.98 "HgN/A
6:30 PM72 °FPassing clouds.6 mph83%29.98 "HgN/A
6:00 PM73 °FPassing clouds.9 mph78%29.98 "HgN/A
5:30 PM73 °FPassing clouds.5 mph83%29.98 "HgN/A
5:00 PM75 °FPassing clouds.No wind69%29.98 "HgN/A
4:30 PM73 °FPassing clouds.1 mph78%29.98 "HgN/A
4:00 PM72 °FPassing clouds.3 mph83%29.98 "HgN/A
3:30 PM72 °FLight rain. Scattered clouds.5 mph83%30.01 "HgN/A
3:00 PM75 °FLight rain. Scattered clouds.1 mph69%30.01 "HgN/A
2:30 PM75 °FPassing clouds.7 mph69%30.01 "HgN/A
2:00 PM77 °FPassing clouds.7 mph65%30.01 "HgN/A
1:30 PM75 °FPassing clouds.6 mph65%30.04 "HgN/A
1:00 PM75 °FSunny.2 mph65%30.04 "Hg10 mi
12:30 PM73 °FPassing clouds.3 mph69%30.04 "HgN/A
12:00 PM72 °FSunny.2 mph73%30.07 "Hg10 mi
Weather by CustomWeather, © 2014

See weather overviewHow to use our weather pages